EW5295 Weather Reports


time (UTC)temp
F
wind
direction
speed
knots
gust
knots
rain 1hr
in
rain 24hr
in
rain mn
in
humidity
%
barometer
mb
20260831013012 69 139 0.0 1.7 0.00 0.00 0.00 56 1015.5
20260831011604 69 175 0.0 2.6 0.00 0.00 0.00 57 1015.6
20260831010052 69 160 0.0 1.7 0.00 0.00 0.00 56 1015.8
20260831004547 70 153 0.0 3.5 0.00 0.00 0.00 56 1015.9
20260831003039 70 188 0.0 4.3 0.00 0.00 0.00 55 1016.1
20260831001538 70 195 0.0 2.6 0.00 0.00 0.00 55 1016.1
20260831000039 70 143 0.0 3.5 0.00 0.00 0.00 55 1016.2
20260830234543 71 170 0.0 4.3 0.00 0.00 0.00 54 1016.3
20260830233036 71 198 0.0 3.5 0.00 0.00 0.00 54 1016.6
20260830231536 71 181 0.0 3.5 0.00 0.00 0.00 54 1016.7
20260830230031 71 169 0.0 3.5 0.00 0.00 0.00 55 1016.9
20260830224509 70 122 0.0 1.7 0.00 0.00 0.00 54 1017.1
20260830223007 70 142 0.0 1.7 0.00 0.00 0.00 55 1017.4
20260830221604 70 185 0.0 4.3 0.00 0.00 0.00 56 1017.5
20260830220104 69 144 0.0 2.6 0.00 0.00 0.00 56 1017.8
20260830214549 69 160 0.0 3.5 0.00 0.00 0.00 56 1018.0
20260830213051 69 151 0.0 1.7 0.00 0.00 0.00 57 1018.1
20260830211554 68 179 0.0 2.6 0.00 0.00 0.00 57 1018.4
20260830210055 67 141 0.0 2.6 0.00 0.00 0.00 58 1018.5
20260830204551 67 300 0.0 2.6 0.00 0.00 0.00 59 1018.6
20260830203051 67 298 0.0 1.7 0.00 0.00 0.00 60 1018.8
20260830201542 66 172 0.0 2.6 0.00 0.00 0.00 59 1019.0
20260830200035 66 175 0.0 0.0 0.00 0.00 0.00 59 1019.2
20260830194531 65 302 0.0 1.7 0.00 0.00 0.00 62 1019.1
20260830193029 65 302 0.0 2.6 0.00 0.00 0.00 61 1019.3
20260830191531 64 168 0.0 2.6 0.00 0.00 0.00 63 1019.5
20260830190032 64 146 0.0 2.6 0.00 0.00 0.00 63 1019.7
20260830184528 64 158 0.0 2.6 0.00 0.00 0.00 64 1019.7
20260830183029 62 309 0.0 3.5 0.00 0.00 0.00 65 1019.7
20260830181528 62 145 0.0 0.9 0.00 0.00 0.00 68 1019.8
20260830180017 61 164 0.0 0.9 0.00 0.00 0.00 68 1019.8
20260830174513 61 185 0.0 1.7 0.00 0.00 0.00 68 1019.7
20260830173051 61 140 0.0 2.6 0.00 0.00 0.00 69 1019.7
20260830171550 61 181 0.0 0.0 0.00 0.00 0.00 72 1019.9
20260830170039 60 168 0.0 0.0 0.00 0.00 0.00 75 1019.8
20260830164542 60 165 0.0 0.0 0.00 0.00 0.00 76 1019.8
20260830163038 58 177 0.0 0.0 0.00 0.00 0.00 81 1019.8
20260830161556 57 177 0.0 0.0 0.00 0.00 0.00 84 1020.0
20260830160037 56 138 0.0 0.0 0.00 0.00 0.00 86 1020.1
20260830154539 55 137 0.0 0.0 0.00 0.00 0.00 88 1020.0
20260830153050 53 137 0.0 0.0 0.00 0.00 0.00 92 1020.0
20260830151538 52 137 0.0 0.0 0.00 0.00 0.00 93 1020.1
20260830150017 51 136 0.0 0.0 0.00 0.00 0.00 93 1020.2
20260830144515 51 135 0.0 0.9 0.00 0.00 0.00 94 1020.2
20260830143109 0 0.0 0.0 0.00 0.00 0.00 1020.0
20260830141557 0 0.0 0.0 0.00 0.00 0.00 1019.9
20260830140050 0 0.0 0.0 0.00 0.00 0.00 1019.9
20260830134549 0 0.0 0.0 0.00 0.00 0.00 1019.9
20260830133042 0 0.0 0.0 0.00 0.00 0.00 1019.9
20260830131541 0 0.0 0.0 0.00 0.00 0.00 1019.9
20260830130040 0 0.0 0.0 0.00 0.00 0.00 1019.8
20260830124529 0 0.0 0.0 0.00 0.00 0.00 1019.7
20260830123015 50 166 0.0 0.0 0.00 0.00 0.00 91 1019.7
20260830121515 51 165 0.0 0.0 0.00 0.00 0.00 91 1019.5
20260830120015 51 165 0.0 0.0 0.00 0.00 0.00 91 1019.6
20260830114523 51 165 0.0 0.0 0.00 0.00 0.00 91 1019.5
20260830113011 51 166 0.0 0.0 0.00 0.00 0.00 91 1019.5
20260830111515 51 166 0.0 0.0 0.00 0.00 0.00 92 1019.5
20260830110010 51 166 0.0 0.0 0.00 0.00 0.00 91 1019.5
20260830104508 51 166 0.0 0.0 0.00 0.00 0.00 90 1019.5
20260830103057 51 166 0.0 0.0 0.00 0.00 0.00 90 1019.5
20260830101606 51 166 0.0 0.0 0.00 0.00 0.00 90 1019.4
20260830100054 51 166 0.0 0.0 0.00 0.00 0.00 90 1019.5
20260830094557 52 166 0.0 0.0 0.00 0.00 0.00 89 1019.5
20260830093051 52 167 0.0 0.0 0.00 0.00 0.00 88 1019.4
20260830091550 52 167 0.0 0.0 0.00 0.00 0.00 88 1019.4
20260830090054 53 152 0.0 0.0 0.00 0.00 0.00 88 1019.4
20260830084549 52 136 0.0 0.0 0.00 0.00 0.00 88 1019.5
20260830083042 52 136 0.0 0.0 0.00 0.00 0.00 88 1019.6
20260830081536 53 136 0.0 0.0 0.00 0.00 0.00 87 1019.7
20260830080033 53 136 0.0 0.0 0.00 0.00 0.00 86 1019.6
20260830074537 54 136 0.0 0.9 0.00 0.00 0.00 85 1019.5
20260830073030 54 137 0.0 0.9 0.00 0.00 0.00 84 1019.5
20260830071529 54 188 0.0 0.9 0.00 0.00 0.00 83 1019.4
20260830070025 55 121 0.0 0.9 0.00 0.00 0.00 82 1019.5
20260830064525 55 176 0.0 4.3 0.00 0.00 0.00 82 1019.5
20260830063012 55 150 0.0 1.7 0.00 0.00 0.00 81 1019.5
20260830061512 55 120 0.0 1.7 0.00 0.00 0.00 80 1019.4
20260830060012 55 143 0.0 1.7 0.00 0.00 0.00 80 1019.4
20260830054510 55 133 0.0 0.9 0.00 0.00 0.00 80 1019.4
20260830053008 55 144 0.0 1.7 0.00 0.00 0.00 80 1019.4
20260830051507 55 158 0.0 0.0 0.00 0.00 0.00 78 1019.4
20260830050004 56 158 0.0 0.0 0.00 0.00 0.00 75 1019.4
20260830044502 57 158 0.0 0.0 0.00 0.00 0.00 73 1019.3
20260830043043 58 142 0.0 0.9 0.00 0.00 0.00 72 1019.3
20260830041539 58 108 0.0 1.7 0.00 0.00 0.00 71 1019.1
20260830040026 58 146 0.0 0.9 0.00 0.00 0.00 70 1018.9
20260830034523 59 142 0.0 2.6 0.00 0.00 0.00 68 1018.9
20260830033020 60 181 0.0 0.9 0.00 0.00 0.00 66 1018.7
20260830031521 60 181 0.0 3.5 0.00 0.00 0.00 65 1018.6
20260830030017 61 126 0.0 0.0 0.00 0.00 0.00 65 1018.5
20260830024512 62 121 0.0 1.7 0.00 0.00 0.00 62 1018.5
20260830023009 63 164 0.0 1.7 0.00 0.00 0.00 60 1018.4
20260830021505 64 146 0.0 3.5 0.00 0.00 0.00 58 1018.3
20260830014545 66 169 0.0 1.7 0.00 0.00 0.00 51 1018.0